SCP
0 0 0 0 0 0 0 0 0 0 0 0 0 0 0 0 0 0 0 0 0 0 0 0 0 0 0 0 0 0 0 0 0 0 0 1 1 1 1 1 1 1 1 1
0 0 0 0 0 0 0 0 0 0 0 0 0 0 0 0 0 0 0 0 0 0 0 0 0 0 0 0 0 0 0 0 0 0 0 0 1 1 1 1 1 1 1 1
0 0 0 0 0 0 0 0 0 0 0 0 0 0 0 0 0 0 0 0 0 0 0 0 0 0 0 0 0 0 0 0 0 0 0 0 0 0 1 1 1 1 1 1
0 0 0 0 0 0 0 0 0 0 0 0 0 0 0 0 0 0 0 0 0 0 0 0 0 0 0 0 0 0 0 0 0 0 0 0 0 0 0 0 1 1 1 1
0 0 0 0 0 0 0 0 0 0 0 0 0 0 0 0 0 0 0 0 0 0 0 0 0 0 0 0 0 0 0 0 0 0 0 0 0 0 0 0 0 0 1 1
0 0 0 0 0 0 0 0 0 0 0 0 0 0 0 0 0 0 0 0 0 0 0 0 0 0 0 0 0 0 0 0 0 0 0 0 0 0 0 0 0 0 0 0
0 0 0 0 0 0 0 0 0 0 0 0 0 0 0 0 0 0 0 0 0 0 0 0 0 0 0 0 0 0 0 0 0 0 0 0 0 0 0 0 0 0 0 0
0 0 0 0 0 0 0 0 0 0 0 0 0 0 0 0 0 0 0 0 0 0 0 0 0 0 0 0 0 0 0 0 0 0 0 0 0 0 0 0 0 0 0 0
0 0 0 0 0 0 0 0 0 0 0 0 0 0 0 0 0 0 0 0 0 0 0 0 0 0 0 0 0 0 0 0 0 0 0 0 0 0 0 0 0 0 0 0
0 0 0 0 0 0 0 0 0 0 0 0 0 0 0 0 0 0 0 0 0 0 0 0 0 0 0 0 0 0 0 0 0 0 0 0 0 0 0 0 0 0 0 0
0 0 0 0 0 0 0 0 0 0 0 0 0 0 0 0 0 0 0 0 0 0 0 0 0 0 0 0 0 0 0 0 0 0 0 0 0 0 0 0 0 0 0 0
0 0 0 0 0 0 0 0 0 0 0 0 0 0 0 0 0 0 0 0 0 0 0 0 0 0 0 0 0 0 0 0 0 0 0 0 0 0 0 0 0 0 0 0
0 0 0 0 0 0 0 0 0 0 0 0 0 0 0 0 0 0 0 0 0 0 0 0 0 0 0 0 0 0 0 0 0 0 0 0 0 0 0 0 0 0 0 0
0 0 0 0 0 0 0 0 0 0 0 0 0 0 0 0 0 0 0 0 0 0 0 0 0 0 0 0 0 0 0 0 0 0 0 0 0 0 0 0 0 0 0 0
0 0 0 0 0 0 0 0 0 0 0 0 0 0 0 0 0 0 0 0 0 0 0 0 0 0 0 0 0 0 0 0 0 0 0 0 0 0 0 0 0 0 0 0
0 0 0 0 0 0 0 0 0 0 0 0 0 0 0 0 0 0 0 0 0 0 0 0 0 0 0 0 0 0 0 0 0 0 0 0 0 0 0 0 0 0 0 0
0 0 0 0 0 0 0 0 0 0 0 0 0 0 0 0 0 0 0 0 0 0 0 0 0 0 0 0 0 0 0 0 0 0 0 0 0 0 0 0 0 0 0 0
0 0 0 0 0 0 0 0 0 0 0 0 0 0 0 0 0 0 0 0 0 0 0 0 0 0 0 0 0 0 0 0 0 0 0 0 0 0 0 0 0 0 0 0
0 0 0 0 0 0 0 0 0 0 0 0 0 0 0 0 0 0 0 0 0 0 0 0 0 0 0 0 0 0 0 0 0 0 0 0 0 0 0 0 0 0 0 0
0 0 0 0 0 0 0 0 0 0 0 0 0 0 0 0 0 0 0 0 0 0 0 0 0 0 0 0 0 0 0 0 0 0 0 0 0 0 0 0 0 0 0 0
0 0 0 0 0 0 0 0 0 0 0 0 0 0 0 0 0 0 0 0 0 0 0 0 0 0 0 0 0 0 0 0 0 0 0 0 0 0 0 0 0 0 0 0
0 0 0 0 0 0 0 0 0 0 0 0 0 0 0 0 0 0 0 0 0 0 0 0 0 0 0 0 0 0 0 0 0 0 0 -0 -0 -0 0 0 0 0 0 0
0 0 0 0 0 0 0 0 0 0 0 0 0 0 0 0 0 0 0 0 0 -0 0 0 0 0 0 0 0 0 0 0 0 0 0 0 -0 -0 -0 -0 0 0 0 0
0 0 0 0 0 0 0 0 0 0 0 0 0 0 0 0 0 0 0 0 -0 -0 0 0 0 0 0 0 0 0 0 0 -0 -0 -0 -0 -0 -0 -0 -0 -0 -0 -0 0
0 0 0 0 0 0 0 0 0 0 0 0 0 0 0 0 0 0 0 0 0 0 0 0 0 0 0 0 0 0 0 0 0 0 0 0 0 0 0 0 0 0 0 0
0 0 0 0 0 0 0 0 0 0 0 0 0 0 0 0 0 0 0 0 0 0 0 0 0 0 0 0 0 0 0 0 0 0 0 0 0 0 0 0 0 0 0 0
Wind_Speed
9 8 13 17 16 10 12 13 12 12 9 10 9 9 8 6 6 6 7 6 5 3 2 4 5 4 4 3 4 4 4 3 2 2 3 4 5 6 6 7 8 8 8 7
7 11 14 13 14 12 7 11 12 7 7 6 6 9 9 8 7 6 5 4 3 1 3 4 3 4 4 5 5 5 4 4 4 2 2 2 3 4 6 7 9 10 10 9
8 8 13 13 13 12 8 6 7 8 6 1 2 6 11 7 4 2 2 3 2 1 3 4 4 5 5 5 5 5 5 5 5 4 3 2 2 2 3 4 6 10 11 11
5 5 11 11 11 10 7 4 3 8 7 4 7 5 9 10 7 5 5 4 3 3 4 4 4 4 4 4 3 4 5 5 4 4 3 4 3 4 5 4 5 7 10 11
3 3 9 12 10 8 4 3 3 5 4 3 6 5 3 8 8 8 6 5 5 4 4 4 4 2 3 4 3 4 5 5 4 4 4 4 4 4 4 4 5 6 6 9
3 3 1 1 2 3 6 7 5 1 2 4 7 7 5 7 10 10 8 7 6 5 4 4 4 2 3 4 3 4 5 5 4 5 5 4 5 5 6 6 6 5 4 5
3 3 3 2 5 3 6 7 4 4 3 6 7 6 5 7 12 12 10 8 6 5 4 3 4 3 4 4 4 5 5 5 5 6 5 6 6 5 6 6 6 6 4 4
5 4 1 1 3 5 6 5 3 5 6 4 3 5 1 7 10 10 9 7 4 4 4 4 3 3 4 4 5 5 6 6 6 6 6 6 6 4 4 5 5 5 4 5
5 4 2 2 1 2 4 4 1 2 3 3 5 4 4 5 7 7 7 6 6 4 4 4 4 4 4 4 5 5 6 6 7 7 7 6 6 5 5 6 6 5 5 5
6 7 5 3 2 2 1 1 2 2 2 3 7 8 9 12 10 8 8 7 5 5 4 4 4 4 4 4 4 5 6 6 6 7 7 7 6 7 6 6 6 6 6 6
6 6 6 5 6 7 5 3 3 3 3 2 2 1 2 15 11 9 7 6 5 5 5 4 3 3 4 4 5 5 6 6 6 7 7 7 7 7 7 6 7 6 6 6
3 5 4 3 2 1 4 5 5 3 3 3 2 1 2 10 9 7 6 5 5 6 5 3 3 3 4 5 5 5 5 5 6 6 7 7 7 8 8 8 8 7 7 7
4 6 6 3 2 3 4 5 5 1 0 2 2 2 3 8 7 6 5 4 5 6 5 3 3 3 4 4 4 4 5 6 6 6 6 7 7 8 8 8 8 9 8 8
1 3 2 3 2 7 6 7 7 5 4 4 4 4 5 6 6 6 5 5 4 5 5 4 3 3 4 4 4 5 5 6 6 6 6 7 7 7 7 8 8 9 9 9
0 2 1 1 3 3 4 8 10 9 7 5 3 3 8 8 6 5 5 5 4 5 5 4 3 3 4 4 4 4 5 5 6 6 6 6 6 7 7 8 8 9 9 10
1 2 2 1 3 2 4 7 10 11 11 8 5 4 0 4 5 4 4 4 4 5 5 4 4 4 4 4 4 4 5 5 5 6 6 6 6 7 7 7 8 9 9 9
3 4 2 2 3 1 8 13 14 11 8 10 11 7 3 4 4 4 4 4 4 6 6 5 4 4 4 3 3 3 4 4 5 5 6 7 7 7 8 8 8 9 9 9
4 4 2 1 2 7 5 1 8 11 11 9 6 5 5 4 3 4 4 4 6 7 6 5 5 4 4 3 3 3 4 4 5 6 6 7 7 7 7 8 8 8 8 8
3 4 2 2 4 7 5 4 4 5 6 11 9 5 2 3 2 2 4 5 6 7 7 6 5 5 4 3 3 3 4 5 5 6 6 6 6 6 7 7 7 6 7 7
3 2 2 3 3 4 2 5 3 3 4 6 9 7 5 4 2 3 6 7 7 7 6 6 5 5 4 4 4 4 4 4 5 5 5 5 5 5 6 6 5 5 5 6
5 4 4 4 4 5 2 5 4 3 1 4 5 5 4 4 3 6 8 7 7 7 7 6 5 5 4 4 4 5 4 3 3 4 4 4 4 4 4 4 4 4 4 4
8 6 6 5 6 6 5 5 3 2 4 5 6 4 4 5 6 7 7 7 8 7 7 6 5 5 4 4 5 5 4 3 3 4 3 3 3 3 3 3 3 2 3 3
8 7 4 6 5 2 5 3 3 4 4 3 3 3 4 4 5 6 7 8 8 8 7 6 6 6 5 4 5 6 5 4 4 4 4 3 3 2 2 2 2 1 1 2
5 6 3 3 4 5 5 4 3 3 3 3 3 3 3 3 4 6 7 7 8 8 8 7 7 7 6 5 5 6 6 5 5 4 4 3 3 3 3 3 3 3 3 2
3 4 4 4 3 2 4 5 6 5 4 4 3 1 2 2 3 5 6 7 8 8 8 8 8 7 7 7 6 6 6 6 5 5 4 3 3 3 3 3 3 3 3 3
4 4 5 4 4 4 4 5 5 5 4 3 2 1 1 2 3 4 5 6 7 8 8 8 8 8 8 8 7 6 6 6 6 5 4 3 2 2 3 3 2 4 3 4
Wind_Direction
172 179 189 193 200 205 186 198 205 204 169 187 212 226 238 213 191 225 246 254 251 223 108 71 47 27 14 8 357 336 322 304 261 223 222 216 209 206 206 212 218 225 232 232
162 202 196 196 202 231 246 203 207 167 136 169 213 232 233 230 214 216 237 260 282 34 86 83 76 61 40 29 14 351 341 329 315 282 249 235 233 222 214 211 213 216 222 226
174 188 195 199 198 209 235 229 198 146 119 190 268 254 227 218 212 196 243 262 282 82 92 92 82 79 64 43 17 354 345 331 321 320 317 309 297 280 249 229 218 215 216 219
192 185 189 193 198 194 209 235 205 132 135 199 195 250 212 183 186 198 203 197 160 119 96 86 70 62 71 64 24 349 333 320 316 320 310 290 271 260 252 245 234 223 214 213
160 185 188 191 192 192 176 134 102 128 189 246 189 232 234 150 180 185 181 160 133 120 109 108 96 70 71 64 25 342 325 320 330 331 316 299 283 275 278 278 265 250 231 217
76 43 60 185 157 134 116 101 84 63 232 247 216 214 231 188 182 166 158 146 143 141 145 140 120 96 75 54 20 344 328 331 339 336 325 307 293 292 296 292 284 275 262 240
86 54 27 38 115 130 158 136 139 172 205 236 200 210 256 174 157 153 151 150 144 148 144 109 80 50 46 34 9 347 350 348 350 344 333 321 311 300 288 285 281 282 279 269
139 146 97 43 150 169 195 194 177 185 194 194 171 216 237 104 122 131 134 132 146 159 117 101 82 51 36 25 10 1 357 350 353 348 336 324 318 308 298 299 297 287 281 277
142 125 95 61 9 148 176 219 349 322 286 163 199 187 103 108 118 131 143 160 175 146 117 105 82 59 37 21 13 5 1 357 357 349 338 333 333 327 319 313 308 302 298 297
125 123 136 119 100 39 353 187 154 179 237 241 192 183 186 174 174 171 173 177 160 134 112 91 73 58 42 29 19 18 13 3 354 347 341 340 336 337 330 324 324 324 325 326
114 121 138 162 191 174 162 176 207 218 263 267 238 194 172 167 167 170 169 152 133 113 94 79 67 55 48 36 30 24 10 2 355 347 343 350 352 349 346 348 347 346 344 346
107 118 129 141 121 272 204 192 189 192 232 227 260 322 63 133 136 137 133 128 124 111 98 91 81 63 55 42 31 21 10 4 355 348 352 -0 359 358 360 357 356 360 3 7
128 122 127 140 189 210 225 218 212 199 172 223 227 160 85 108 118 133 142 138 129 123 109 88 73 72 62 45 33 21 14 6 355 356 5 9 8 7 6 3 7 12 17 20
53 153 159 170 162 162 190 199 194 170 187 211 225 156 178 156 163 164 148 129 116 120 115 95 66 69 64 52 36 23 16 8 2 10 19 16 13 13 11 13 19 23 26 31
222 118 113 29 58 126 186 196 194 197 208 213 233 184 178 177 169 147 133 134 137 133 121 108 86 67 56 49 38 25 20 15 11 21 26 20 20 22 24 27 30 32 35 38
165 134 134 229 197 194 230 223 211 210 220 236 263 281 330 115 120 139 150 151 152 138 125 113 99 83 64 55 41 31 29 24 25 32 33 27 30 31 32 36 39 42 42 41
157 137 159 215 165 230 247 221 210 205 200 208 224 227 181 154 167 163 149 153 150 133 125 118 106 94 81 72 57 42 42 41 41 42 41 39 41 42 41 45 48 49 48 48
169 159 170 205 163 240 237 127 189 207 214 208 213 206 191 171 140 127 132 147 139 132 131 125 115 106 96 88 80 70 60 58 55 50 47 47 49 51 49 51 52 52 52 53
191 183 198 206 242 265 217 170 170 185 220 207 210 214 194 119 109 144 122 113 123 125 121 120 118 119 114 106 102 95 78 69 63 55 50 51 56 61 59 58 57 58 64 62
223 225 229 222 247 263 89 133 149 172 239 187 184 192 185 146 191 188 142 123 119 119 121 126 129 126 122 120 115 102 90 81 70 63 62 62 63 68 68 66 66 65 71 74
189 208 221 235 248 269 133 135 141 189 181 106 122 136 144 159 162 144 140 135 135 133 134 135 137 133 133 133 123 116 110 98 91 88 81 77 78 83 85 81 80 84 85 85
186 192 198 200 224 244 144 146 185 134 89 84 89 94 107 113 120 138 147 148 148 147 148 149 144 141 148 150 141 137 140 139 125 114 105 98 98 103 111 110 108 110 110 98
192 200 193 198 211 168 154 147 115 110 110 102 107 111 123 138 157 163 164 163 165 164 164 160 157 160 170 171 160 160 173 170 154 144 138 134 128 116 113 113 106 89 78 82
204 208 228 237 214 172 168 158 136 120 120 119 117 127 149 171 173 172 173 173 174 174 172 168 169 175 182 183 175 167 169 172 160 149 144 141 131 115 83 57 52 57 39 47
211 179 210 242 246 180 186 179 163 144 131 124 116 140 186 198 197 185 184 183 182 179 173 173 180 183 183 178 175 163 165 165 155 148 143 135 128 121 101 79 65 80 66 68
222 198 195 220 213 191 180 159 145 140 139 132 142 199 233 225 227 208 197 186 181 179 175 178 183 183 177 172 171 166 165 165 156 153 158 158 155 140 136 133 103 81 110 83